Weather History for Tappahannock, VA

Change the Weather History Date:

Thursday, January 24, 2013

  Actual Average (KRIC) Record (KRIC)
Temperature  
Mean Temperature 19 °F 38 °F  
Max Temperature 29 °F 48 °F 76 °F (1950)
Min Temperature 9 °F 28 °F 5 °F (1936)
Degree Days  
Heating Degree Days 46 27  
Month to date heating degree days 648  
Since 1 July heating degree days 2067  
Cooling Degree Days 0 0  
Month to date cooling degree days 0  
Year to date cooling degree days 0  
Moisture  
Dew Point 11 °F    
Average Humidity 65    
Maximum Humidity 95    
Minimum Humidity 30    
Precipitation  
Precipitation 0.00 in 0.10 in 1.78 in (1940)
Month to date precipitation 2.35  
Year to date precipitation 2.35  
Snow  
Snow 0.00 in 0.10 in 19.90 in (1940)
Month to date snowfall 2.8  
Since 1 July snowfall 5.1  
Snow Depth -    
Sea Level Pressure  
Sea Level Pressure 30.31 in    
Wind  
Wind Speed 5 mph (NNW)    
Max Wind Speed 16 mph    
Max Gust Speed 26 mph    
Visibility 7 miles    
Events Snow    
T = Trace of Precipitation, MM = Missing Value Source: NWS Daily Summary

Daily Weather History Graph

Daily Weather History Graph

Search for Another Location

Airport:

Trip Planner

Search our weather history database for the weather conditions in past years. The results will help you decide how hot, cold, wet, or windy it might be!

Date:

Astronomy

Jan. 24, 2013 Rise Set
Actual Time 7:17 AM EST 5:22 PM EST
Civil Twilight 6:49 AM EST 5:50 PM EST
Nautical Twilight 6:17 AM EST 6:22 PM EST
Astronomical Twilight 5:46 AM EST 6:53 PM EST
Moon 3:23 PM EST (1/24) 5:12 AM EST (1/24)
Length of Visible Light 11h 01m
Length of Day
10h 04m
Waxing Gibbous, 94% of the Moon is Illuminated
Jan 24
Waxing Gibbous
Jan 26
Full
Feb 3
Last Quarter
Feb 10
New
Feb 17
First Quarter

Hourly Weather History & Observations

Time (EST) Temp. Windchill Dew Point Humidity Pressure Visibility Wind Dir Wind Speed Gust Speed Precip Events Conditions
12:15 AM 25.7 °F - 21.0 °F 82% 30.13 in 1.0 mi Calm Calm - N/A Snow Snow
12:35 AM 24.8 °F - 22.1 °F 89% 30.11 in 1.0 mi Calm Calm - N/A Snow Snow
12:55 AM 24.8 °F - 23.0 °F 93% 30.10 in 1.0 mi Calm Calm - N/A Snow Snow
1:15 AM 25.2 °F - 23.4 °F 93% 30.09 in 1.5 mi Calm Calm - N/A Snow Light Snow
1:35 AM 24.8 °F 20.5 °F 23.0 °F 93% 30.08 in 2.0 mi NNE 3.5 mph - N/A Snow Light Snow
1:55 AM 24.8 °F 20.5 °F 23.0 °F 93% 30.07 in 2.5 mi NNE 3.5 mph - N/A Snow Light Snow
2:15 AM 24.8 °F 20.5 °F 23.2 °F 94% 30.05 in 3.0 mi NNE 3.5 mph - N/A Snow Light Snow
2:35 AM 24.8 °F 20.5 °F 23.5 °F 95% 30.05 in 2.5 mi North 3.5 mph - N/A Snow Light Snow
2:55 AM 24.8 °F 19.1 °F 23.5 °F 95% 30.04 in 5.0 mi North 4.6 mph - N/A Snow Light Snow
3:15 AM 25.2 °F 19.5 °F 23.7 °F 94% 30.04 in 5.0 mi NNE 4.6 mph - N/A Snow Light Snow
3:35 AM 25.3 °F 19.7 °F 23.9 °F 94% 30.04 in 4.0 mi North 4.6 mph - N/A Snow Light Snow
3:55 AM 25.3 °F 19.7 °F 23.7 °F 94% 30.04 in 2.5 mi North 4.6 mph - N/A Snow Light Snow
4:15 AM 25.0 °F 16.3 °F 23.2 °F 93% 30.04 in 1.5 mi North 8.1 mph - N/A Snow Light Snow
4:35 AM 24.3 °F 18.4 °F 22.1 °F 91% 30.05 in 1.5 mi North 4.6 mph - N/A Snow Light Snow
4:55 AM 23.9 °F 16.8 °F 22.1 °F 93% 30.06 in 1.5 mi North 5.8 mph - N/A Snow Light Snow
5:15 AM 23.5 °F 16.4 °F 21.6 °F 92% 30.08 in 1.8 mi North 5.8 mph - N/A Snow Light Snow
5:35 AM 23.0 °F 15.8 °F 21.0 °F 92% 30.10 in 1.8 mi North 5.8 mph - N/A Snow Light Snow
5:55 AM 23.0 °F 13.9 °F 21.0 °F 92% 30.11 in 1.0 mi North 8.1 mph - N/A Snow Light Snow
6:15 AM 22.6 °F 15.3 °F 20.7 °F 92% 30.12 in 3.0 mi North 5.8 mph - N/A Snow Light Snow
6:35 AM 22.1 °F 13.7 °F 19.2 °F 89% 30.12 in 5.0 mi North 6.9 mph - N/A Snow Light Snow
6:55 AM 21.2 °F 12.6 °F 18.1 °F 88% 30.14 in 10.0 mi North 6.9 mph - N/A   Mostly Cloudy
7:15 AM 20.5 °F 12.8 °F 16.9 °F 86% 30.16 in 10.0 mi North 5.8 mph - N/A   Scattered Clouds
7:35 AM 21.2 °F 16.4 °F 17.4 °F 85% 30.18 in 10.0 mi North 3.5 mph - N/A   Overcast
7:55 AM 21.7 °F 14.3 °F 18.1 °F 86% 30.19 in 10.0 mi NNW 5.8 mph - N/A   Overcast
8:15 AM 22.1 °F 15.9 °F 18.1 °F 85% 30.21 in 3.0 mi North 4.6 mph - N/A Snow Light Snow
8:35 AM 22.1 °F 12.8 °F 18.9 °F 87% 30.23 in 0.8 mi NNW 8.1 mph - N/A Snow Light Snow
8:55 AM 21.9 °F 10.4 °F 17.2 °F 82% 30.25 in 2.0 mi North 11.5 mph 17.3 mph N/A Snow Light Snow
9:15 AM 21.9 °F 14.5 °F 16.9 °F 81% 30.27 in 4.0 mi NNW 5.8 mph - N/A Snow Light Snow
9:35 AM 22.1 °F 12.0 °F 15.8 °F 77% 30.29 in 5.0 mi North 9.2 mph - N/A Snow Light Snow
9:55 AM 22.8 °F 11.5 °F 14.5 °F 71% 30.31 in 10.0 mi North 11.5 mph 17.3 mph N/A   Overcast
10:15 AM 22.6 °F 12.6 °F 14.2 °F 70% 30.32 in 10.0 mi NW 9.2 mph 16.1 mph N/A   Overcast
10:35 AM 23.7 °F 13.3 °F 13.6 °F 65% 30.34 in 10.0 mi NNW 10.4 mph - N/A Snow Light Snow
10:55 AM 24.1 °F 13.7 °F 12.2 °F 61% 30.34 in 10.0 mi NNW 10.4 mph 17.3 mph N/A   Mostly Cloudy
11:15 AM 23.4 °F 11.1 °F 11.7 °F 61% 30.35 in 10.0 mi NNW 13.8 mph 17.3 mph N/A   Mostly Cloudy
11:35 AM 23.7 °F 12.6 °F 11.7 °F 60% 30.35 in 10.0 mi NW 11.5 mph 20.7 mph N/A   Overcast
11:55 AM 24.1 °F 13.7 °F 13.3 °F 63% 30.36 in 5.0 mi NW 10.4 mph - N/A Snow Light Snow
12:15 PM 25.7 °F 15.7 °F 12.7 °F 58% 30.36 in 10.0 mi NW 10.4 mph 17.3 mph N/A   Overcast
12:35 PM 26.4 °F 17.3 °F 10.2 °F 51% 30.36 in 10.0 mi NW 9.2 mph 16.1 mph N/A   Mostly Cloudy
12:55 PM 26.8 °F 17.1 °F 10.6 °F 51% 30.37 in 10.0 mi WNW 10.4 mph 16.1 mph N/A   Mostly Cloudy
1:15 PM 26.2 °F 17.8 °F 7.7 °F 46% 30.38 in 10.0 mi NW 8.1 mph 17.3 mph N/A   Mostly Cloudy
1:35 PM 25.5 °F 16.2 °F 7.2 °F 46% 30.38 in 10.0 mi WNW 9.2 mph 17.3 mph N/A   Scattered Clouds
1:55 PM 26.2 °F 15.8 °F 6.4 °F 43% 30.37 in 10.0 mi NW 11.5 mph 17.3 mph N/A   Scattered Clouds
2:15 PM 28.0 °F 18.1 °F 5.4 °F 38% 30.37 in 10.0 mi NNW 11.5 mph 21.9 mph N/A   Mostly Cloudy
2:35 PM 28.8 °F 17.0 °F 4.1 °F 35% 30.38 in 10.0 mi WNW 16.1 mph 26.5 mph N/A   Mostly Cloudy
2:55 PM 29.1 °F 19.4 °F 3.9 °F 34% 30.39 in 10.0 mi WNW 11.5 mph 24.2 mph N/A   Mostly Cloudy
3:15 PM 27.3 °F 19.9 °F 3.2 °F 36% 30.40 in 10.0 mi NW 6.9 mph 19.6 mph N/A   Scattered Clouds
3:35 PM 27.3 °F 16.6 °F 2.8 °F 35% 30.41 in 10.0 mi NW 12.7 mph 16.1 mph N/A   Clear
3:55 PM 26.6 °F 17.5 °F 2.5 °F 36% 30.43 in 10.0 mi WNW 9.2 mph 16.1 mph N/A   Scattered Clouds
4:15 PM 27.9 °F 19.8 °F 2.3 °F 34% 30.43 in 10.0 mi NW 8.1 mph - N/A   Scattered Clouds
4:35 PM 27.5 °F 18.6 °F -0.6 °F 30% 30.43 in 10.0 mi NNW 9.2 mph 17.3 mph N/A   Clear
4:55 PM 26.6 °F 18.2 °F -0.9 °F 30% 30.44 in 10.0 mi WNW 8.1 mph - N/A   Clear
5:15 PM 25.7 °F 18.0 °F -1.1 °F 31% 30.46 in 10.0 mi NW 6.9 mph - N/A   Clear
5:35 PM 25.3 °F 16.7 °F -1.1 °F 32% 30.47 in 10.0 mi NNW 8.1 mph - N/A   Clear
5:55 PM 25.0 °F 20.7 °F -1.8 °F 31% 30.48 in 10.0 mi NW 3.5 mph - N/A   Clear
6:15 PM 24.3 °F - -1.7 °F 32% 30.49 in 10.0 mi Calm Calm - N/A   Clear
6:35 PM 22.3 °F 16.1 °F -1.3 °F 36% 30.49 in 10.0 mi WNW 4.6 mph - N/A   Clear
6:55 PM 22.5 °F - -1.3 °F 36% 30.50 in 10.0 mi Calm Calm - N/A   Clear
7:15 PM 21.4 °F 16.6 °F -0.4 °F 39% 30.51 in 10.0 mi WSW 3.5 mph - N/A   Clear
7:35 PM 21.4 °F - -0.4 °F 39% 30.51 in 10.0 mi Calm Calm - N/A   Clear
7:55 PM 18.9 °F 13.7 °F 0.7 °F 45% 30.52 in 10.0 mi West 3.5 mph - N/A   Clear
8:35 PM 18.0 °F 12.7 °F 0.7 °F 47% 30.52 in 10.0 mi WSW 3.5 mph - N/A   Clear
8:55 PM 17.1 °F - 0.7 °F 49% 30.53 in 10.0 mi Calm Calm - N/A   Clear
9:15 PM 15.3 °F 7.9 °F 1.4 °F 54% 30.53 in 10.0 mi SW 4.6 mph - N/A   Clear
9:35 PM 15.3 °F - 0.5 °F 52% 30.54 in 10.0 mi Calm Calm - N/A   Clear
9:55 PM 14.0 °F - 1.8 °F 58% 30.53 in 10.0 mi Calm Calm - N/A   Clear
10:15 PM 14.7 °F - 2.1 °F 57% 30.53 in 10.0 mi Calm Calm - N/A   Clear
10:35 PM 12.0 °F - 2.5 °F 66% 30.53 in 10.0 mi Calm Calm - N/A   Clear
10:55 PM 10.9 °F - 2.7 °F 69% 30.53 in 10.0 mi Calm Calm - N/A   Clear
11:15 PM 10.6 °F - 2.8 °F 71% 30.53 in 10.0 mi Calm Calm - N/A   Clear
11:35 PM 9.0 °F - 2.7 °F 76% 30.53 in 10.0 mi Calm Calm - N/A   Clear
11:55 PM 10.4 °F 4.0 °F 3.0 °F 72% 30.54 in 10.0 mi WSW 3.5 mph - N/A   Clear